EW9936 Weather Reports


Display with metric or nautical units.
time (UTC)temp
F
wind
direction
speed
MPH
gust
MPH
rain 1hr
in
rain 24hr
in
rain mn
in
humidity
%
barometer
mb
20260505021522 60 200 0.0 0.0 0.00 0.00 0.00 67 973.6
20260505020021 60 199 0.0 0.0 0.00 0.00 0.00 67 973.8
20260505014528 60 200 1.0 0.0 0.00 0.00 0.00 66 973.7
20260505013020 60 208 0.0 0.0 0.00 0.00 0.00 66 973.6
20260505011520 61 208 0.0 0.0 0.00 0.00 0.00 65 973.4
20260505010024 62 208 0.0 0.0 0.00 0.00 0.00 63 973.3
20260505004524 63 207 0.0 0.0 0.00 0.00 0.00 62 973.3
20260505003019 64 207 0.0 0.0 0.00 0.00 0.00 61 973.1
20260505001518 65 207 1.0 0.0 0.00 0.00 0.00 60 973.0
20260505000018 65 193 1.0 0.0 0.00 0.00 0.00 59 972.9
20260504234517 66 193 5.0 0.0 0.00 0.00 0.00 57 972.9
20260504233017 66 196 8.0 0.0 0.00 0.00 0.00 57 972.9
20260504231516 67 215 7.0 0.0 0.00 0.00 0.00 56 972.9
20260504230016 67 219 8.0 0.0 0.00 0.00 0.00 55 972.9
20260504224519 68 218 8.0 0.0 0.00 0.00 0.00 55 973.1
20260504223026 68 188 8.0 0.0 0.00 0.00 0.00 54 973.0
20260504221513 69 199 8.0 0.0 0.00 0.00 0.00 54 973.1
20260504220016 69 221 9.0 0.0 0.00 0.00 0.00 54 973.1
20260504214515 68 178 11.0 0.0 0.00 0.00 0.00 54 973.1
20260504213021 69 210 8.0 0.0 0.00 0.00 0.00 54 973.3
20260504211511 69 209 8.0 0.0 0.00 0.00 0.00 56 973.3
20260504210012 68 168 10.0 0.0 0.00 0.00 0.00 54 973.2
20260504204531 68 215 8.0 0.0 0.00 0.00 0.00 55 973.1
20260504203015 68 222 9.0 0.0 0.00 0.00 0.00 57 973.4
20260504201508 69 224 8.0 0.0 0.00 0.00 0.00 57 973.5
20260504200007 69 189 7.0 0.0 0.00 0.00 0.00 56 973.5
20260504194507 69 227 7.0 0.0 0.00 0.00 0.00 55 973.7
20260504193004 69 230 6.0 0.0 0.00 0.00 0.00 53 973.8
20260504191501 68 227 10.0 0.0 0.00 0.00 0.00 55 974.2
20260504190001 69 216 5.0 0.0 0.00 0.00 0.00 54 974.2
20260504184600 69 218 5.0 0.0 0.00 0.00 0.00 53 974.3
20260504183100 68 199 6.0 0.0 0.00 0.00 0.00 52 974.4
20260504181600 69 219 6.0 0.0 0.00 0.00 0.00 52 974.6
20260504180056 69 193 2.0 0.0 0.00 0.00 0.00 54 974.9
20260504174559 68 198 3.0 0.0 0.00 0.00 0.00 57 975.1
20260504173049 67 175 6.0 0.0 0.00 0.00 0.00 53 975.3
20260504171550 67 221 6.0 0.0 0.00 0.00 0.00 58 975.7
20260504081529 41 272 0.0 0.0 0.00 0.00 0.00 86 978.2
20260504050018 41 292 1.0 0.0 0.00 0.00 0.00 86 978.3
20260504044514 40 293 0.0 0.0 0.00 0.00 0.00 92 978.3
20260504043010 40 293 0.0 0.0 0.00 0.00 0.00 91 978.3
20260504041505 40 293 0.0 0.0 0.00 0.00 0.00 90 978.1
20260504040002 40 293 0.0 0.0 0.00 0.00 0.00 89 978.2
20260504034634 41 292 0.0 0.0 0.00 0.00 0.00 87 978.0
20260504033059 41 293 0.0 0.0 0.00 0.00 0.00 85 978.0
20260504031559 42 293 0.0 0.0 0.00 0.00 0.00 84 977.9
20260504030121 42 293 0.0 0.0 0.00 0.00 0.00 82 977.8
20260504024601 43 293 0.0 0.0 0.00 0.00 0.00 81 977.9
20260504023057 44 292 0.0 0.0 0.00 0.00 0.00 79 977.9